Location: ???????
(55.4362°N, 38.1183°E)
Time: 13:16:40
(UTC+00:00)

Cosmos 2219 Rocket - Pass Details

Date: 27 October 2021
Orbit: 826 x 848 km, 71.0° (Epoch: 01 December)

Event Time Altitude Azimuth Distance (km) Brightness Sun altitude
Rises 15:42:36 0° 170° (S) 3,358 5.2 -15.1°
Reaches altitude 10° 15:45:24 10° 157° (SSE) 2,432 4.4 -15.5°
Maximum altitude 15:49:51 25° 104° (ESE) 1,617 3.1 -16.1°
Enters shadow 15:50:04 25° 100° (E) 1,620 3.1 -16.2°
